Погода в Прибрежном

Россия / Костромская область     57°53′41″N   40°52′43″E
темп.,
°C
ветер,
м/с
пор.,
м/с
влажн.,
%
обл.,
%
осадки,
мм/ч
давл.,
гПа
погр.,
м
20 апреля, вт
вт2000:00+2в412661 0.0 1030435
03:000в4117322 0.0 1030342
06:000в412655 0.0 1029406
09:00+6вюв510415 0.0 1029775
12:00+9вюв584099 0.0 10271543
15:00+10вюв6939100 0.0 10251711
18:00+9вюв51047100 0.0 10231358
21:00+6вюв5124862 0.0 1022752
21 апреля, ср
ср2100:00+4в5145199 0.0 1020698
03:00+3в61554100 0.0 1016743
06:00+1в71783100 0.8 1012933
09:00+2вюв71690100 2.9 1010938
12:00+4вюв71786100 0.0 1007816
15:00+3вюв71894100 0.3 1005775
18:00+5ю61191100 0.6 1006891
21:00+4ю51186100 0.7 10081115
22 апреля, чт
чт2200:00+3ю51190100 0.1 1009918
03:00+4ююз51188100 0.4 1010931
06:00+3юз41093100 0.2 1012950
09:00+4ююз4996100 0.4 1014888
12:00+9юз5768100 0.3 10151336
15:00+10ююз466299 0.6 10151434
18:00+9ююз3771100 0.1 1016373
21:00+5ю39915 0.1 1018175
23 апреля, пт
пт2300:00+4ю26945 0.0 1018119
03:00+3ююв26946 0.0 1019115
06:00+3ююв27937 0.0 1019166
09:00+9ююв48714 0.0 1019599
12:00+13ююв57505 0.0 10181304
15:00+15ююв57467 0.0 10171693
18:00+14юв495534 0.0 1016646
21:00+10юв5137657 0.0 1015370
24 апреля, сб
сб2400:00+9юв4148073 0.0 1014402
03:00+7юв4119079 0.3 1013295
06:00+8юв41288100 0.1 1012380
09:00+13юв510667 0.1 1010642
12:00+16ююв694546 0.6 10082238
15:00+16ююв51045100 0.6 10062585
18:00+14юв61057100 0.2 10051042
21:00+10ююв51179100 1.5 1003780